SCP
-0 -0 -0 0 0 0 0 -0 0 0 0 0 -0 -0 -0 -0 0 0 0 0 -0 0 0 0 0 -0 -0 -0 -0 -0 -0 -0 -0 -0 -0 -0 -0 -0 -0 -0 -0 -0 0 0 0 0 0 0 -0
0 -0 0 0 0 0 0 -0 -0 -0 -0 -0 -0 -0 -0 -0 -0 0 0 0 0 0 0 0 0 0 -0 -0 -0 -0 -0 -0 -0 -0 -0 -0 -0 -0 -0 -0 -0 0 0 -0 -0 -0 0 0 -0
0 0 0 0 0 0 0 0 -0 -0 -0 0 -0 -0 -0 -0 -0 0 0 0 0 0 0 0 0 0 0 -0 -0 -0 -0 -0 -0 -0 -0 -0 -0 -0 -0 -0 -0 0 -0 -0 -0 0 -0 -0 -0
-0 -0 0 0 0 0 0 0 -0 -0 0 -0 -0 -0 -0 -0 -0 -0 -0 -0 0 0 0 0 0 0 0 -0 -0 -0 -0 -0 -0 -0 -0 -0 -0 -0 -0 0 0 0 0 0 -0 -0 -0 -0 -0
-0 -0 0 0 0 0 0 -0 -0 -0 -0 -0 0 -0 0 -0 -0 -0 -0 -0 -0 0 0 0 0 0 0 0 -0 -0 -0 -0 -0 -0 -0 -0 -0 -0 -0 0 0 0 -0 -0 0 -0 0 -0 0
-0 -0 -0 0 -0 0 0 0 0 0 -0 -0 -0 -0 -0 -0 -0 -0 -0 -0 0 0 0 0 0 0 0 -0 -0 -0 -0 -0 -0 -0 -0 -0 -0 -0 0 0 0 0 0 0 -0 0 0 -0 -0
-0 -0 -0 0 0 0 0 0 0 -0 -0 0 -0 -0 0 -0 -0 -0 -0 -0 0 0 0 0 0 0 0 0 -0 -0 -0 -0 -0 -0 -0 -0 -0 -0 0 -0 0 0 0 0 0 0 -0 0 0
0 0 0 0 0 -0 0 0 0 0 -0 -0 -0 -0 -0 -0 -0 -0 -0 -0 -0 0 0 0 0 0 0 0 0 0 0 -0 -0 -0 -0 0 0 0 -0 0 -0 0 -0 0 -0 -0 -0 -0 -0
0 0 0 -0 -0 -0 0 -0 0 0 -0 0 0 -0 0 -0 -0 -0 -0 0 -0 -0 0 0 0 0 0 0 0 0 0 -0 -0 -0 0 0 0 0 0 -0 -0 -0 -0 0 -0 -0 -0 -0 0
0 0 -0 -0 0 -0 -0 -0 -0 0 -0 0 -0 -0 -0 -0 -0 -0 -0 -0 -0 0 -0 -0 0 0 0 0 0 0 0 0 0 0 0 0 0 0 0 0 0 0 0 -0 0 0 0 0 0
0 0 0 0 0 0 -0 -0 0 -0 -0 -0 -0 -0 -0 -0 0 -0 0 0 0 0 -0 -0 0 0 0 0 0 0 0 0 0 0 0 0 0 0 0 0 0 0 -0 -0 -0 -0 0 0 0
-0 -0 -0 0 -0 -0 -0 0 0 -0 0 -0 -0 -0 -0 -0 -0 -0 -0 -0 -0 0 -0 0 0 -0 -0 0 0 0 0 0 0 0 0 0 0 0 0 0 0 0 0 -0 -0 0 0 0 0
-0 0 -0 0 -0 -0 -0 -0 -0 0 -0 -0 -0 -0 -0 -0 -0 -0 -0 0 0 -0 0 -0 0 0 0 0 0 0 0 0 0 0 0 0 0 0 0 0 0 0 -0 -0 -0 -0 0 0 0
-0 -0 -0 0 0 0 -0 0 0 0 -0 -0 -0 -0 -0 -0 -0 -0 -0 -0 0 0 0 -0 0 0 0 0 0 0 0 0 0 0 0 0 0 0 0 0 0 0 0 -0 0 0 -0 0 0
-0 -0 0 0 0 0 -0 0 0 0 0 -0 -0 -0 -0 -0 -0 -0 -0 -0 0 -0 0 0 -0 -0 0 0 0 0 0 0 0 0 0 0 0 0 0 0 0 -0 -0 0 0 0 0 0 0
0 0 0 0 0 -0 -0 -0 0 0 0 -0 -0 -0 -0 -0 -0 -0 -0 -0 0 -0 0 -0 0 0 0 -0 0 0 0 0 0 0 0 0 0 0 0 0 0 -0 -0 0 -0 -0 0 0 0
0 -0 0 0 -0 0 -0 -0 -0 0 -0 -0 -0 -0 -0 -0 -0 -0 -0 -0 -0 -0 0 0 -0 0 0 -0 0 0 0 0 0 0 0 0 0 0 0 0 0 0 0 0 0 0 0 0 0
0 -0 -0 0 -0 -0 -0 -0 -0 -0 -0 0 0 -0 -0 -0 -0 -0 -0 -0 -0 -0 0 -0 -0 -0 -0 -0 -0 0 0 0 0 0 0 0 0 0 0 0 0 0 -0 -0 -0 0 0 0 0
0 -0 -0 -0 -0 -0 -0 0 -0 0 0 0 -0 -0 -0 -0 -0 -0 -0 -0 -0 -0 -0 -0 -0 -0 -0 -0 0 -0 0 0 0 0 0 0 0 0 0 0 0 0 0 -0 0 0 0 -0 0
0 0 0 -0 0 0 0 -0 -0 -0 -0 -0 -0 -0 0 -0 -0 -0 -0 -0 -0 -0 -0 -0 0 -0 -0 -0 0 0 0 0 0 0 0 0 0 0 0 0 0 0 0 -0 -0 0 0 0 0
0 -0 -0 -0 -0 -0 -0 -0 0 0 0 -0 -0 -0 -0 -0 -0 -0 0 -0 -0 -0 -0 -0 -0 -0 -0 -0 0 0 0 0 0 0 0 0 0 0 0 0 0 0 0 -0 0 0 0 0 0
-0 -0 -0 -0 0 0 -0 -0 -0 -0 -0 -0 -0 -0 -0 -0 -0 -0 0 -0 -0 -0 0 0 0 0 0 0 0 0 0 0 0 0 0 0 0 0 0 0 0 0 0 0 0 0 -0 0 -0
-0 -0 -0 -0 0 0 0 0 -0 -0 -0 -0 -0 -0 -0 -0 -0 -0 -0 -0 0 0 0 0 0 0 0 0 0 0 0 0 0 0 0 0 0 0 0 0 0 0 0 0 0 0 -0 -0 -0
0 0 0 0 0 0 0 0 0 -0 -0 -0 -0 -0 -0 -0 -0 -0 -0 0 0 0 0 0 0 0 0 0 0 0 0 -0 0 0 0 0 0 0 0 0 0 0 0 -0 0 0 -0 0 -0
0 0 0 0 0 0 0 0 -0 -0 -0 -0 -0 -0 -0 -0 -0 -0 -0 0 0 0 0 0 0 0 0 0 0 0 0 0 0 0 0 0 0 0 0 0 0 0 0 0 0 0 -0 -0 -0
-0 0 0 -0 0 0 0 -0 -0 -0 0 -0 -0 -0 -0 -0 -0 -0 -0 0 0 0 0 0 0 0 0 0 0 0 0 0 0 0 0 0 -0 0 0 0 0 0 0 0 0 0 0 0 -0
-0 0 0 0 0 0 0 0 0 0 -0 -0 -0 -0 -0 -0 -0 -0 -0 0 0 0 0 0 0 0 0 0 0 0 0 -0 -0 -0 0 -0 0 0 0 0 0 0 0 0 0 0 0 0 0
0 0 0 0 0 0 0 -0 -0 0 -0 0 -0 -0 -0 0 0 -0 -0 0 0 0 0 0 0 0 0 0 0 0 0 -0 -0 -0 0 0 0 0 0 0 0 0 -0 0 0 0 0 0 -0
0 0 0 0 0 0 0 -0 0 0 -0 -0 -0 -0 -0 0 0 -0 -0 -0 0 -0 0 0 0 0 0 0 0 0 0 0 -0 -0 0 0 0 0 0 0 0 0 -0 0 0 0 0 0 0
0 0 0 0 0 0 -0 -0 -0 0 0 -0 -0 -0 -0 -0 -0 -0 -0 -0 0 0 0 0 0 0 0 0 0 0 0 0 0 0 -0 0 0 0 0 0 0 0 0 0 0 0 0 0 -0
Wind_Speed_500mb
9 9 2 3 6 6 5 10 9 2 7 13 20 17 16 15 5 6 32 26 31 30 29 27 28 28 26 30 29 30 31 31 29 27 27 26 26 26 25 23 21 24 26 23 21 20 18 17 16
8 1 4 3 8 5 4 16 18 9 29 34 38 23 13 6 4 20 35 24 27 28 27 26 26 28 28 28 28 28 27 27 26 26 24 23 21 20 21 24 22 26 26 24 23 21 19 18 16
8 5 3 7 3 8 6 9 22 5 16 3 13 21 8 6 15 31 27 29 26 27 26 26 27 27 29 29 26 26 25 24 25 25 23 20 19 23 28 30 27 26 25 23 22 18 16 18 19
4 5 8 6 4 3 3 11 15 24 5 13 34 14 12 9 17 21 30 27 24 27 30 28 26 27 29 28 27 25 24 23 23 21 20 22 19 26 31 29 28 25 23 20 22 18 16 20 19
8 7 6 5 5 3 1 7 31 27 1 9 1 7 7 9 17 21 22 21 22 26 30 29 28 28 28 28 27 26 24 22 22 22 19 21 23 28 29 28 27 24 20 19 19 16 16 17 18
4 5 4 1 3 5 4 8 18 18 11 16 24 12 7 21 26 25 21 21 21 23 26 29 31 31 29 27 25 22 22 20 20 23 22 23 26 27 27 28 24 22 19 18 17 15 13 11 15
7 6 0 9 3 7 7 11 12 13 21 6 28 8 17 25 24 22 21 19 21 22 26 32 36 32 34 32 28 24 18 16 20 25 24 25 27 28 28 25 23 20 20 16 18 18 13 4 6
10 6 8 6 11 9 10 1 23 18 3 38 23 12 13 37 32 22 19 14 13 16 21 25 29 32 31 31 28 27 19 15 22 27 23 32 27 27 26 26 24 22 18 19 21 16 15 7 8
13 6 6 12 12 9 17 9 30 22 30 7 7 36 42 44 34 27 24 20 13 18 19 19 19 21 24 28 29 26 24 22 26 27 31 31 23 28 25 26 25 21 17 22 17 9 6 10 7
7 5 9 15 12 6 19 18 21 14 30 7 35 35 47 45 37 33 30 26 19 22 22 18 15 16 18 22 28 28 27 17 23 32 35 29 24 27 26 27 25 19 15 20 16 13 27 26 9
9 4 3 8 20 13 18 12 25 26 6 37 55 56 53 47 40 35 31 26 20 22 21 18 12 15 19 16 23 29 24 21 38 37 26 25 27 24 25 28 26 18 17 14 16 14 18 20 12
3 4 7 7 17 16 10 3 10 32 11 48 51 53 56 49 44 38 37 30 25 22 18 18 13 14 18 19 28 29 23 42 36 29 27 31 29 27 27 29 26 19 13 20 29 21 12 5 11
6 10 17 15 26 26 35 23 14 14 28 34 50 53 55 47 42 36 35 30 26 24 21 24 27 28 27 28 29 32 41 37 28 36 35 32 28 26 28 26 21 15 9 13 20 28 9 11 8
7 23 18 11 24 22 18 11 2 23 23 41 53 55 53 47 43 38 39 36 31 31 27 28 24 21 25 29 37 44 37 35 31 30 23 21 23 23 26 18 15 11 7 18 14 23 15 7 10
10 6 9 8 8 11 36 9 1 13 23 39 46 50 53 48 46 44 37 37 34 31 28 26 21 23 25 29 32 40 34 26 23 22 22 18 18 17 18 16 12 3 4 13 6 13 7 3 9
7 4 5 8 15 26 6 10 26 23 15 43 44 50 53 57 53 47 39 33 35 33 26 28 28 19 26 30 33 30 28 26 20 18 17 15 15 12 12 9 7 9 11 14 19 14 16 20 10
7 5 3 5 20 10 8 6 32 38 29 38 35 26 69 61 58 52 44 36 36 30 21 26 27 24 32 34 31 25 21 16 14 13 15 14 13 6 5 3 5 8 4 7 13 7 11 9 11
10 7 6 10 15 12 12 16 8 50 36 43 34 34 73 74 65 60 51 42 37 31 20 25 30 28 28 29 26 23 18 18 10 8 17 12 10 6 7 6 8 6 7 6 8 9 10 6 9
9 4 8 5 11 11 15 12 16 34 39 37 28 31 57 68 62 61 56 47 43 36 31 30 30 28 35 33 25 26 23 17 8 9 16 11 12 12 10 12 9 7 6 3 7 13 9 13 8
12 9 10 6 6 9 12 20 11 14 30 40 35 37 53 52 65 66 60 55 49 41 38 39 34 29 28 30 26 27 25 17 14 13 12 11 12 12 13 10 14 13 3 2 3 8 4 2 10
12 18 13 1 12 7 6 12 13 13 31 36 40 45 43 55 68 68 66 61 53 49 45 43 36 31 22 20 27 29 26 25 23 19 18 13 11 14 13 17 14 17 10 6 3 3 1 4 2
15 26 27 13 11 5 8 9 9 13 14 21 37 53 45 59 76 72 70 67 63 56 46 46 36 40 29 24 27 36 33 33 24 22 21 11 15 16 20 23 17 17 13 12 11 8 5 5 7
25 15 33 22 6 5 7 3 12 8 17 29 43 53 59 59 77 82 79 71 63 60 51 44 40 39 37 33 30 33 34 37 32 25 25 23 21 25 26 27 25 19 15 15 14 11 10 3 2
6 13 17 13 7 6 11 11 12 11 20 24 34 49 64 63 77 81 74 77 71 66 57 47 44 40 41 41 38 40 37 39 36 34 32 29 23 23 28 29 28 25 22 16 20 20 15 9 7
11 12 6 5 1 11 1 10 18 15 16 18 38 49 67 68 78 82 78 77 70 67 62 56 50 44 44 44 43 42 41 42 38 40 36 33 27 22 24 30 28 23 24 22 20 26 24 18 15
9 17 12 11 7 8 8 11 11 6 7 13 27 50 59 64 84 86 76 78 69 60 57 55 54 51 48 48 45 43 43 39 43 32 37 35 33 30 21 26 26 25 26 27 27 24 24 24 20
9 5 9 14 8 5 6 13 19 3 14 14 19 40 58 67 75 91 82 73 71 60 64 55 47 53 48 44 48 47 45 46 39 36 35 39 35 32 26 23 30 27 27 27 28 31 33 32 29
17 15 5 5 9 8 8 10 11 7 9 11 8 29 44 59 67 78 76 71 74 61 61 59 54 53 45 42 44 47 47 48 39 35 37 35 37 35 33 27 26 27 29 28 30 28 28 32 34
4 2 11 12 8 11 4 11 13 16 13 16 21 33 42 48 59 67 72 69 61 57 54 58 51 48 48 48 46 51 46 52 51 45 40 40 43 41 33 28 28 32 36 40 37 35 31 29 29
3 10 12 10 8 3 9 10 4 17 15 21 27 33 37 49 50 48 48 60 54 68 50 44 47 59 57 51 43 45 46 49 52 54 51 45 46 45 41 37 35 32 35 39 39 36 31 31 32
Wind_Direction_500mb
112 61 45 341 56 40 33 346 311 257 62 73 113 118 114 45 113 185 141 148 165 170 167 168 172 170 159 159 153 144 145 146 148 145 146 149 149 141 135 131 124 126 131 142 141 144 148 148 149
142 120 6 1 83 59 20 327 26 44 127 100 83 97 60 65 77 144 151 151 169 175 171 168 171 174 170 166 162 159 155 150 150 147 150 150 141 143 144 140 130 126 127 128 126 134 138 139 142
170 197 40 86 57 131 122 353 41 82 152 64 112 65 79 112 128 154 159 158 171 183 178 175 174 173 173 172 172 171 167 162 152 152 154 144 130 148 138 133 132 128 121 118 112 127 136 143 142
80 80 56 78 82 85 142 343 347 314 49 55 113 79 72 121 175 167 162 169 182 188 183 183 180 176 171 171 181 179 173 171 165 162 161 136 126 130 138 133 130 128 123 113 112 123 133 148 150
28 53 62 28 7 314 259 282 282 285 33 121 22 98 79 161 171 151 160 167 187 183 189 190 190 185 178 177 178 179 176 180 174 170 174 152 141 130 132 130 125 123 113 104 115 130 146 160 164
49 77 79 284 315 286 312 290 293 280 106 128 98 94 68 141 152 151 162 174 189 208 201 202 200 196 188 184 186 184 181 188 179 176 175 154 143 136 135 126 121 112 102 99 111 128 141 171 155
118 81 298 125 328 303 212 293 291 161 155 142 128 89 139 160 170 161 173 191 200 200 202 204 206 208 208 204 202 196 194 197 183 179 174 158 140 135 132 126 120 110 100 113 103 91 94 127 168
135 95 165 214 193 241 188 105 251 219 204 147 119 153 175 177 170 164 164 165 175 195 198 198 202 203 205 208 203 200 197 187 167 171 163 149 134 130 132 126 117 111 125 109 93 93 83 103 176
152 77 198 195 159 253 137 210 227 219 161 175 181 156 155 171 174 173 167 156 148 165 173 179 199 204 207 209 203 199 192 166 170 154 146 148 133 133 136 125 120 125 115 91 84 78 27 27 158
132 139 232 187 174 180 159 259 282 142 169 75 120 147 160 172 175 177 170 156 139 139 144 154 168 179 185 195 200 190 181 171 166 155 150 146 136 136 135 127 130 126 107 97 82 49 32 28 83
166 205 233 202 185 101 164 186 187 132 179 169 153 159 170 176 180 185 175 150 143 138 137 120 146 179 186 180 179 169 170 149 141 145 149 141 139 138 134 135 124 115 92 78 50 39 348 347 55
221 60 117 105 147 145 164 71 111 180 200 173 162 163 170 180 185 190 183 163 154 143 141 121 119 138 162 164 171 160 144 149 146 150 146 135 129 129 131 131 127 114 62 18 25 15 52 327 69
32 64 48 112 105 95 102 52 341 97 181 178 167 172 177 181 189 195 190 179 160 144 137 135 124 112 114 131 142 147 143 145 148 132 127 114 117 125 129 134 122 87 60 37 41 75 72 107 118
326 88 115 118 86 118 88 357 228 146 183 168 177 181 185 186 191 192 192 186 165 152 135 143 146 125 121 122 122 134 137 140 141 127 115 122 126 127 132 127 108 107 77 92 90 30 64 110 139
84 80 100 147 121 121 104 15 106 168 148 180 184 188 194 194 200 201 190 186 168 158 157 152 141 145 137 130 137 143 145 141 135 129 115 127 125 129 127 116 108 57 99 97 81 98 88 47 100
43 88 109 204 158 164 176 199 230 181 193 175 187 202 206 201 204 206 201 190 180 166 164 167 167 175 161 157 147 151 149 150 153 139 131 122 137 124 98 85 101 104 106 67 78 88 81 96 120
14 285 160 197 200 147 214 238 229 194 213 199 195 231 208 211 213 210 207 199 190 175 176 173 165 156 156 155 162 164 163 164 147 163 165 131 118 112 106 145 160 136 73 37 117 76 51 109 105
202 229 183 184 188 180 187 257 217 211 221 230 230 220 198 206 213 206 209 204 198 188 184 170 166 164 168 169 172 180 191 181 159 146 182 168 192 261 216 183 160 118 80 96 102 87 87 51 116
163 179 221 209 194 143 210 237 247 200 216 230 234 208 196 209 213 206 209 208 201 195 190 184 173 169 181 182 192 193 184 177 175 126 164 165 206 217 223 206 208 176 82 81 75 77 54 67 86
153 185 256 81 152 143 191 230 245 198 224 225 223 211 198 205 208 210 210 207 207 202 198 198 190 179 180 197 200 197 197 200 198 174 173 177 198 222 218 216 210 194 178 280 57 45 316 117 39
196 199 214 224 122 44 98 292 236 249 234 220 225 213 207 210 207 207 206 209 207 205 206 204 206 205 198 191 201 206 209 207 198 199 201 199 234 252 238 215 216 199 211 225 205 67 66 30 151
213 210 199 173 128 219 171 267 251 192 235 227 217 214 207 206 209 206 206 207 213 210 209 210 213 214 210 207 218 213 224 216 208 211 198 217 247 254 232 226 228 211 221 236 246 213 159 98 65
230 155 197 183 95 75 239 26 266 144 217 225 221 209 210 209 209 206 206 211 213 212 213 214 215 212 214 215 219 216 219 216 225 216 227 238 246 258 235 237 231 227 230 231 233 222 215 201 63
79 71 46 53 60 318 214 161 281 191 212 218 213 206 206 207 208 206 207 213 212 210 214 217 217 221 222 225 229 229 230 222 233 228 230 238 246 239 230 233 235 234 234 243 228 237 241 238 253
96 88 52 25 4 226 69 132 250 278 218 204 202 192 202 205 205 202 205 205 209 211 216 221 219 224 227 233 239 241 241 235 231 233 236 235 236 246 236 232 235 240 237 242 241 238 259 261 260
172 153 154 194 187 239 144 221 249 290 71 169 217 202 206 205 202 205 206 205 208 217 218 221 225 226 230 235 243 248 246 245 233 234 230 240 240 244 257 237 239 244 241 240 235 238 246 259 254
181 151 182 99 1 57 280 290 310 67 77 97 165 192 200 208 206 211 214 218 218 228 222 225 231 232 228 236 240 246 246 240 237 230 235 240 248 236 236 236 238 244 242 244 246 242 245 251 253
161 162 92 13 135 234 293 286 243 294 171 147 153 203 200 212 214 213 218 215 228 226 228 229 236 229 229 238 243 249 247 241 240 239 242 236 233 227 229 236 233 239 239 242 244 251 256 258 246
71 188 54 113 125 157 220 258 220 225 226 164 194 219 215 211 214 220 221 226 229 227 234 226 227 228 231 246 249 248 250 245 244 242 241 237 235 232 228 236 242 252 253 253 251 257 256 258 244
108 172 137 128 217 153 152 269 190 248 234 169 202 218 212 214 219 226 223 221 224 225 227 221 231 239 246 236 234 245 253 248 249 247 243 240 238 238 242 246 253 248 250 250 245 252 249 249 248
Wind_Speed_850mb
9 9 2 3 6 6 5 10 9 2 7 13 20 17 16 15 5 6 32 26 31 30 29 27 28 28 26 30 29 30 31 31 29 27 27 26 26 26 25 23 21 24 26 23 21 20 18 17 16
8 1 4 3 8 5 4 16 18 9 29 34 38 23 13 6 4 20 35 24 27 28 27 26 26 28 28 28 28 28 27 27 26 26 24 23 21 20 21 24 22 26 26 24 23 21 19 18 16
8 5 3 7 3 8 6 9 22 5 16 3 13 21 8 6 15 31 27 29 26 27 26 26 27 27 29 29 26 26 25 24 25 25 23 20 19 23 28 30 27 26 25 23 22 18 16 18 19
4 5 8 6 4 3 3 11 15 24 5 13 34 14 12 9 17 21 30 27 24 27 30 28 26 27 29 28 27 25 24 23 23 21 20 22 19 26 31 29 28 25 23 20 22 18 16 20 19
8 7 6 5 5 3 1 7 31 27 1 9 1 7 7 9 17 21 22 21 22 26 30 29 28 28 28 28 27 26 24 22 22 22 19 21 23 28 29 28 27 24 20 19 19 16 16 17 18
4 5 4 1 3 5 4 8 18 18 11 16 24 12 7 21 26 25 21 21 21 23 26 29 31 31 29 27 25 22 22 20 20 23 22 23 26 27 27 28 24 22 19 18 17 15 13 11 15
7 6 0 9 3 7 7 11 12 13 21 6 28 8 17 25 24 22 21 19 21 22 26 32 36 32 34 32 28 24 18 16 20 25 24 25 27 28 28 25 23 20 20 16 18 18 13 4 6
10 6 8 6 11 9 10 1 23 18 3 38 23 12 13 37 32 22 19 14 13 16 21 25 29 32 31 31 28 27 19 15 22 27 23 32 27 27 26 26 24 22 18 19 21 16 15 7 8
13 6 6 12 12 9 17 9 30 22 30 7 7 36 42 44 34 27 24 20 13 18 19 19 19 21 24 28 29 26 24 22 26 27 31 31 23 28 25 26 25 21 17 22 17 9 6 10 7
7 5 9 15 12 6 19 18 21 14 30 7 35 35 47 45 37 33 30 26 19 22 22 18 15 16 18 22 28 28 27 17 23 32 35 29 24 27 26 27 25 19 15 20 16 13 27 26 9
9 4 3 8 20 13 18 12 25 26 6 37 55 56 53 47 40 35 31 26 20 22 21 18 12 15 19 16 23 29 24 21 38 37 26 25 27 24 25 28 26 18 17 14 16 14 18 20 12
3 4 7 7 17 16 10 3 10 32 11 48 51 53 56 49 44 38 37 30 25 22 18 18 13 14 18 19 28 29 23 42 36 29 27 31 29 27 27 29 26 19 13 20 29 21 12 5 11
6 10 17 15 26 26 35 23 14 14 28 34 50 53 55 47 42 36 35 30 26 24 21 24 27 28 27 28 29 32 41 37 28 36 35 32 28 26 28 26 21 15 9 13 20 28 9 11 8
7 23 18 11 24 22 18 11 2 23 23 41 53 55 53 47 43 38 39 36 31 31 27 28 24 21 25 29 37 44 37 35 31 30 23 21 23 23 26 18 15 11 7 18 14 23 15 7 10
10 6 9 8 8 11 36 9 1 13 23 39 46 50 53 48 46 44 37 37 34 31 28 26 21 23 25 29 32 40 34 26 23 22 22 18 18 17 18 16 12 3 4 13 6 13 7 3 9
7 4 5 8 15 26 6 10 26 23 15 43 44 50 53 57 53 47 39 33 35 33 26 28 28 19 26 30 33 30 28 26 20 18 17 15 15 12 12 9 7 9 11 14 19 14 16 20 10
7 5 3 5 20 10 8 6 32 38 29 38 35 26 69 61 58 52 44 36 36 30 21 26 27 24 32 34 31 25 21 16 14 13 15 14 13 6 5 3 5 8 4 7 13 7 11 9 11
10 7 6 10 15 12 12 16 8 50 36 43 34 34 73 74 65 60 51 42 37 31 20 25 30 28 28 29 26 23 18 18 10 8 17 12 10 6 7 6 8 6 7 6 8 9 10 6 9
9 4 8 5 11 11 15 12 16 34 39 37 28 31 57 68 62 61 56 47 43 36 31 30 30 28 35 33 25 26 23 17 8 9 16 11 12 12 10 12 9 7 6 3 7 13 9 13 8
12 9 10 6 6 9 12 20 11 14 30 40 35 37 53 52 65 66 60 55 49 41 38 39 34 29 28 30 26 27 25 17 14 13 12 11 12 12 13 10 14 13 3 2 3 8 4 2 10
12 18 13 1 12 7 6 12 13 13 31 36 40 45 43 55 68 68 66 61 53 49 45 43 36 31 22 20 27 29 26 25 23 19 18 13 11 14 13 17 14 17 10 6 3 3 1 4 2
15 26 27 13 11 5 8 9 9 13 14 21 37 53 45 59 76 72 70 67 63 56 46 46 36 40 29 24 27 36 33 33 24 22 21 11 15 16 20 23 17 17 13 12 11 8 5 5 7
25 15 33 22 6 5 7 3 12 8 17 29 43 53 59 59 77 82 79 71 63 60 51 44 40 39 37 33 30 33 34 37 32 25 25 23 21 25 26 27 25 19 15 15 14 11 10 3 2
6 13 17 13 7 6 11 11 12 11 20 24 34 49 64 63 77 81 74 77 71 66 57 47 44 40 41 41 38 40 37 39 36 34 32 29 23 23 28 29 28 25 22 16 20 20 15 9 7
11 12 6 5 1 11 1 10 18 15 16 18 38 49 67 68 78 82 78 77 70 67 62 56 50 44 44 44 43 42 41 42 38 40 36 33 27 22 24 30 28 23 24 22 20 26 24 18 15
9 17 12 11 7 8 8 11 11 6 7 13 27 50 59 64 84 86 76 78 69 60 57 55 54 51 48 48 45 43 43 39 43 32 37 35 33 30 21 26 26 25 26 27 27 24 24 24 20
9 5 9 14 8 5 6 13 19 3 14 14 19 40 58 67 75 91 82 73 71 60 64 55 47 53 48 44 48 47 45 46 39 36 35 39 35 32 26 23 30 27 27 27 28 31 33 32 29
17 15 5 5 9 8 8 10 11 7 9 11 8 29 44 59 67 78 76 71 74 61 61 59 54 53 45 42 44 47 47 48 39 35 37 35 37 35 33 27 26 27 29 28 30 28 28 32 34
4 2 11 12 8 11 4 11 13 16 13 16 21 33 42 48 59 67 72 69 61 57 54 58 51 48 48 48 46 51 46 52 51 45 40 40 43 41 33 28 28 32 36 40 37 35 31 29 29
3 10 12 10 8 3 9 10 4 17 15 21 27 33 37 49 50 48 48 60 54 68 50 44 47 59 57 51 43 45 46 49 52 54 51 45 46 45 41 37 35 32 35 39 39 36 31 31 32
Wind_Direction_850mb
112 61 45 341 56 40 33 346 311 257 62 73 113 118 114 45 113 185 141 148 165 170 167 168 172 170 159 159 153 144 145 146 148 145 146 149 149 141 135 131 124 126 131 142 141 144 148 148 149
142 120 6 1 83 59 20 327 26 44 127 100 83 97 60 65 77 144 151 151 169 175 171 168 171 174 170 166 162 159 155 150 150 147 150 150 141 143 144 140 130 126 127 128 126 134 138 139 142
170 197 40 86 57 131 122 353 41 82 152 64 112 65 79 112 128 154 159 158 171 183 178 175 174 173 173 172 172 171 167 162 152 152 154 144 130 148 138 133 132 128 121 118 112 127 136 143 142
80 80 56 78 82 85 142 343 347 314 49 55 113 79 72 121 175 167 162 169 182 188 183 183 180 176 171 171 181 179 173 171 165 162 161 136 126 130 138 133 130 128 123 113 112 123 133 148 150
28 53 62 28 7 314 259 282 282 285 33 121 22 98 79 161 171 151 160 167 187 183 189 190 190 185 178 177 178 179 176 180 174 170 174 152 141 130 132 130 125 123 113 104 115 130 146 160 164
49 77 79 284 315 286 312 290 293 280 106 128 98 94 68 141 152 151 162 174 189 208 201 202 200 196 188 184 186 184 181 188 179 176 175 154 143 136 135 126 121 112 102 99 111 128 141 171 155
118 81 298 125 328 303 212 293 291 161 155 142 128 89 139 160 170 161 173 191 200 200 202 204 206 208 208 204 202 196 194 197 183 179 174 158 140 135 132 126 120 110 100 113 103 91 94 127 168
135 95 165 214 193 241 188 105 251 219 204 147 119 153 175 177 170 164 164 165 175 195 198 198 202 203 205 208 203 200 197 187 167 171 163 149 134 130 132 126 117 111 125 109 93 93 83 103 176
152 77 198 195 159 253 137 210 227 219 161 175 181 156 155 171 174 173 167 156 148 165 173 179 199 204 207 209 203 199 192 166 170 154 146 148 133 133 136 125 120 125 115 91 84 78 27 27 158
132 139 232 187 174 180 159 259 282 142 169 75 120 147 160 172 175 177 170 156 139 139 144 154 168 179 185 195 200 190 181 171 166 155 150 146 136 136 135 127 130 126 107 97 82 49 32 28 83
166 205 233 202 185 101 164 186 187 132 179 169 153 159 170 176 180 185 175 150 143 138 137 120 146 179 186 180 179 169 170 149 141 145 149 141 139 138 134 135 124 115 92 78 50 39 348 347 55
221 60 117 105 147 145 164 71 111 180 200 173 162 163 170 180 185 190 183 163 154 143 141 121 119 138 162 164 171 160 144 149 146 150 146 135 129 129 131 131 127 114 62 18 25 15 52 327 69
32 64 48 112 105 95 102 52 341 97 181 178 167 172 177 181 189 195 190 179 160 144 137 135 124 112 114 131 142 147 143 145 148 132 127 114 117 125 129 134 122 87 60 37 41 75 72 107 118
326 88 115 118 86 118 88 357 228 146 183 168 177 181 185 186 191 192 192 186 165 152 135 143 146 125 121 122 122 134 137 140 141 127 115 122 126 127 132 127 108 107 77 92 90 30 64 110 139
84 80 100 147 121 121 104 15 106 168 148 180 184 188 194 194 200 201 190 186 168 158 157 152 141 145 137 130 137 143 145 141 135 129 115 127 125 129 127 116 108 57 99 97 81 98 88 47 100
43 88 109 204 158 164 176 199 230 181 193 175 187 202 206 201 204 206 201 190 180 166 164 167 167 175 161 157 147 151 149 150 153 139 131 122 137 124 98 85 101 104 106 67 78 88 81 96 120
14 285 160 197 200 147 214 238 229 194 213 199 195 231 208 211 213 210 207 199 190 175 176 173 165 156 156 155 162 164 163 164 147 163 165 131 118 112 106 145 160 136 73 37 117 76 51 109 105
202 229 183 184 188 180 187 257 217 211 221 230 230 220 198 206 213 206 209 204 198 188 184 170 166 164 168 169 172 180 191 181 159 146 182 168 192 261 216 183 160 118 80 96 102 87 87 51 116
163 179 221 209 194 143 210 237 247 200 216 230 234 208 196 209 213 206 209 208 201 195 190 184 173 169 181 182 192 193 184 177 175 126 164 165 206 217 223 206 208 176 82 81 75 77 54 67 86
153 185 256 81 152 143 191 230 245 198 224 225 223 211 198 205 208 210 210 207 207 202 198 198 190 179 180 197 200 197 197 200 198 174 173 177 198 222 218 216 210 194 178 280 57 45 316 117 39
196 199 214 224 122 44 98 292 236 249 234 220 225 213 207 210 207 207 206 209 207 205 206 204 206 205 198 191 201 206 209 207 198 199 201 199 234 252 238 215 216 199 211 225 205 67 66 30 151
213 210 199 173 128 219 171 267 251 192 235 227 217 214 207 206 209 206 206 207 213 210 209 210 213 214 210 207 218 213 224 216 208 211 198 217 247 254 232 226 228 211 221 236 246 213 159 98 65
230 155 197 183 95 75 239 26 266 144 217 225 221 209 210 209 209 206 206 211 213 212 213 214 215 212 214 215 219 216 219 216 225 216 227 238 246 258 235 237 231 227 230 231 233 222 215 201 63
79 71 46 53 60 318 214 161 281 191 212 218 213 206 206 207 208 206 207 213 212 210 214 217 217 221 222 225 229 229 230 222 233 228 230 238 246 239 230 233 235 234 234 243 228 237 241 238 253
96 88 52 25 4 226 69 132 250 278 218 204 202 192 202 205 205 202 205 205 209 211 216 221 219 224 227 233 239 241 241 235 231 233 236 235 236 246 236 232 235 240 237 242 241 238 259 261 260
172 153 154 194 187 239 144 221 249 290 71 169 217 202 206 205 202 205 206 205 208 217 218 221 225 226 230 235 243 248 246 245 233 234 230 240 240 244 257 237 239 244 241 240 235 238 246 259 254
181 151 182 99 1 57 280 290 310 67 77 97 165 192 200 208 206 211 214 218 218 228 222 225 231 232 228 236 240 246 246 240 237 230 235 240 248 236 236 236 238 244 242 244 246 242 245 251 253
161 162 92 13 135 234 293 286 243 294 171 147 153 203 200 212 214 213 218 215 228 226 228 229 236 229 229 238 243 249 247 241 240 239 242 236 233 227 229 236 233 239 239 242 244 251 256 258 246
71 188 54 113 125 157 220 258 220 225 226 164 194 219 215 211 214 220 221 226 229 227 234 226 227 228 231 246 249 248 250 245 244 242 241 237 235 232 228 236 242 252 253 253 251 257 256 258 244
108 172 137 128 217 153 152 269 190 248 234 169 202 218 212 214 219 226 223 221 224 225 227 221 231 239 246 236 234 245 253 248 249 247 243 240 238 238 242 246 253 248 250 250 245 252 249 249 248